Wind_Speed
20 20 21 21 21 22 21 21 21 21 20 20 20 20 19 19 19 19 20 20 20 19 19 19 19 19 19 18 18 19 19 19 19 19 20 19 19 19 19 20 19 19 20
21 21 22 22 23 23 22 23 22 22 21 21 21 21 20 20 20 20 20 21 21 21 21 21 20 20 20 20 20 20 20 20 20 21 21 21 20 21 21 21 21 21 21
21 22 22 23 23 23 23 23 23 22 22 22 22 22 22 22 22 21 21 22 22 22 22 22 22 22 22 22 22 21 21 21 21 23 23 23 23 22 23 23 23 22 22
22 22 23 23 24 23 23 23 23 23 24 24 23 23 23 22 22 23 24 23 23 22 22 22 22 22 23 23 23 23 23 22 23 24 25 25 26 25 24 25 24 24 24
22 22 23 23 23 24 24 24 24 24 25 25 25 25 24 25 24 23 24 25 24 24 24 24 24 24 23 23 24 25 24 24 25 25 25 26 27 26 26 26 26 26 25
22 22 23 23 23 24 24 24 25 25 25 25 25 25 24 25 24 24 24 24 24 24 24 24 24 24 25 25 24 24 25 26 26 26 27 27 27 28 28 27 28 27 27
22 22 23 24 24 24 24 24 25 25 26 26 26 26 25 24 24 25 25 24 24 24 24 25 25 25 24 26 26 26 26 26 26 26 27 27 27 29 29 29 29 29 28
23 24 24 24 24 25 25 26 26 27 27 27 27 27 26 26 26 26 26 26 26 25 25 25 25 25 25 26 26 26 26 27 27 27 27 27 27 28 29 29 30 30 29
24 25 25 25 25 26 27 27 27 27 27 27 27 27 27 27 27 27 27 27 27 26 26 27 27 27 27 28 27 27 27 28 28 28 28 28 29 29 29 30 30 30 30
25 26 26 26 27 27 27 27 27 27 27 27 27 28 28 29 29 29 29 29 28 28 28 29 28 28 28 29 29 28 28 29 30 30 29 29 29 30 30 30 31 31 31
26 26 27 27 28 28 28 28 28 28 28 28 28 29 29 29 30 30 31 30 29 29 30 30 30 29 29 29 29 30 30 30 30 30 30 30 30 31 31 31 31 32 32
27 27 28 28 28 28 29 29 28 28 29 29 29 29 30 30 30 31 32 31 31 31 31 31 31 31 31 31 31 31 32 32 32 32 32 31 31 31 32 32 31 31 32
27 28 29 29 28 28 28 28 29 29 29 29 30 30 30 30 31 31 32 32 32 32 32 32 32 32 32 32 32 32 33 33 33 33 33 32 31 32 32 32 32 32 32
27 27 28 28 28 28 28 28 28 29 29 29 30 30 31 31 31 31 31 31 31 31 32 32 33 34 34 34 34 34 34 33 33 34 33 33 33 33 33 34 34 33 33
27 27 27 27 27 28 28 28 29 29 29 29 30 31 31 31 31 31 31 30 31 31 31 32 33 33 34 34 34 35 35 34 34 34 35 35 35 35 35 35 35 35 35
27 28 28 28 28 28 29 29 30 30 30 30 30 30 30 30 30 30 30 30 30 30 31 31 32 32 32 32 32 33 33 34 35 36 37 37 37 37 36 36 36 37 37
27 28 28 28 29 29 29 29 30 29 29 29 29 30 30 30 31 31 31 31 30 30 30 30 31 31 32 33 33 33 33 34 35 36 37 37 37 37 36 36 37 38 38
28 28 29 29 29 30 30 30 30 30 30 30 30 30 30 30 31 31 31 31 30 30 30 30 30 31 31 31 32 33 33 33 33 34 35 36 37 37 37 37 37 38 38
29 29 29 29 30 30 30 30 30 30 30 30 30 29 30 30 30 31 31 31 30 30 30 30 30 30 30 31 31 31 32 32 33 33 34 35 36 36 36 37 37 38 38
29 30 30 30 30 30 30 30 30 31 31 30 30 29 29 30 29 29 29 29 30 30 30 30 30 29 30 30 30 31 31 32 32 33 33 33 34 34 35 36 37 38 38
30 30 30 31 31 31 31 31 31 31 31 31 31 30 30 30 30 29 29 29 29 29 29 30 29 29 30 30 30 31 31 31 32 33 33 33 33 34 35 35 36 37 38
31 31 31 32 31 31 31 31 31 30 30 30 30 29 29 29 29 29 30 29 29 30 30 29 29 29 30 30 30 30 31 31 31 32 33 34 35 35 35 36 36 36 37
32 32 32 32 31 32 31 31 30 30 29 29 29 28 28 28 28 29 30 30 30 30 30 30 30 30 29 29 29 30 31 31 32 32 33 34 35 36 37 37 37 37 37
33 33 33 33 33 32 31 30 30 29 29 29 29 28 28 28 28 29 29 29 29 29 30 30 30 29 29 30 30 31 32 32 33 34 34 35 35 35 35 36 37 37 36
33 33 33 33 32 32 31 30 30 29 29 29 28 28 28 28 28 28 28 28 28 27 28 28 28 28 29 29 30 31 31 31 32 32 32 32 33 33 34 34 35 35 35
32 32 31 31 31 31 31 30 30 29 29 28 28 28 28 27 27 27 27 26 26 26 27 27 28 28 28 29 29 30 30 30 30 31 31 32 32 32 33 33 34 34 35
Wind_Direction
277 277 277 279 282 284 284 286 285 284 282 281 281 281 281 279 277 276 276 277 277 277 276 273 271 269 266 264 265 266 265 263 259 258 256 254 254 256 258 260 261 261 260
277 277 278 279 282 282 282 285 285 284 282 281 281 282 282 280 278 276 276 276 276 275 275 272 271 269 266 265 264 264 264 264 262 260 260 257 254 256 261 261 261 263 263
277 278 279 281 283 281 281 282 284 284 283 281 282 282 282 280 277 277 277 277 275 274 273 272 270 269 267 266 265 263 263 265 264 262 260 257 256 259 261 262 262 264 265
279 279 279 281 283 282 281 282 282 281 282 282 283 283 281 280 278 276 276 277 277 275 273 272 270 268 267 267 266 265 264 264 265 264 261 257 258 261 261 261 262 264 265
279 279 278 280 282 282 283 283 283 282 282 283 284 283 281 280 279 278 276 276 275 274 273 271 270 267 266 267 267 267 265 264 264 265 261 259 261 262 260 260 263 264 265
279 280 280 281 282 282 284 284 283 283 282 280 282 283 282 280 278 277 278 277 275 273 272 270 269 267 265 265 268 268 266 265 265 264 261 262 262 262 262 260 262 264 264
281 282 282 282 283 283 285 286 286 285 284 281 281 282 282 280 279 277 277 276 274 274 272 270 268 267 267 267 267 268 269 266 264 264 264 263 263 264 262 259 260 260 263
282 283 283 283 283 284 285 286 287 287 285 283 281 281 280 280 280 278 276 275 273 272 270 269 268 266 268 268 267 267 268 266 266 265 266 264 262 262 261 259 259 259 261
284 286 286 286 284 284 284 285 286 287 286 284 282 281 280 280 280 280 277 275 273 271 269 268 268 267 268 268 268 267 267 265 264 265 265 265 263 263 261 260 259 259 259
285 286 287 287 286 285 285 285 285 286 285 283 282 281 280 279 278 278 277 275 273 271 269 268 269 269 270 269 269 268 268 267 265 263 264 264 263 263 263 261 260 259 258
284 286 286 286 286 285 285 285 286 286 285 284 282 282 281 281 280 279 278 276 273 270 268 268 268 268 270 271 270 270 271 269 267 266 264 263 263 263 263 263 264 261 259
285 286 287 287 286 286 285 285 286 286 286 284 283 282 282 282 280 279 277 275 273 270 269 268 268 269 271 272 272 271 271 271 270 269 266 263 262 263 263 264 264 261 260
285 286 287 287 286 285 285 285 285 285 285 284 283 282 282 281 280 279 277 275 273 271 270 270 269 269 271 272 272 272 272 271 270 269 267 264 262 262 263 264 265 262 262
288 288 287 286 285 285 285 285 285 286 286 285 284 282 282 282 280 279 278 277 274 272 271 271 271 271 271 271 271 271 271 270 268 267 266 265 263 264 264 264 264 263 262
289 290 288 287 286 286 285 286 286 286 287 287 285 284 281 281 280 278 278 277 277 275 274 273 273 273 272 272 272 271 269 268 267 267 267 267 265 264 265 264 264 264 264
290 291 289 287 286 286 286 286 287 287 287 287 286 285 283 281 278 277 278 278 279 278 275 273 273 273 273 273 273 272 269 267 266 267 266 267 265 264 263 263 263 263 264
291 292 291 288 287 287 286 286 287 288 287 287 287 286 285 283 280 279 278 278 278 278 276 276 276 274 273 272 273 273 270 268 267 266 266 265 266 263 262 262 262 262 264
290 292 292 291 289 289 288 287 287 288 288 289 288 288 286 284 282 281 280 279 278 278 278 278 277 275 274 273 273 272 270 269 268 267 266 265 265 264 263 263 263 263 263
289 291 292 291 291 291 289 287 287 287 287 288 288 288 286 285 284 282 281 280 279 279 279 278 277 276 275 274 274 272 270 269 268 268 267 266 266 265 265 265 264 263 263
290 291 292 292 292 291 290 288 287 286 287 287 288 287 285 283 283 283 281 280 280 280 279 278 277 275 274 273 273 272 272 271 270 268 268 267 266 266 266 266 265 264 264
290 291 292 293 293 291 289 288 288 287 287 287 286 286 285 283 282 283 282 281 279 279 278 278 276 275 273 273 274 273 273 273 272 271 269 268 266 266 267 267 266 265 265
290 291 291 293 293 291 291 290 289 288 288 288 287 286 285 283 283 282 282 281 280 280 280 279 277 276 275 274 275 274 273 273 273 271 270 268 267 267 267 267 268 267 266
292 292 292 293 293 292 291 290 289 288 288 288 287 286 285 285 285 284 283 282 281 281 280 279 278 277 276 276 276 275 275 274 275 274 272 271 269 269 268 267 267 268 267
293 293 293 293 293 292 291 290 289 289 288 287 286 285 285 286 287 286 284 283 282 281 279 278 278 277 277 277 276 277 277 276 275 274 274 274 272 271 270 268 267 267 267
294 294 294 294 293 292 290 289 288 289 289 288 286 285 286 286 286 285 284 283 282 281 280 280 279 279 279 279 279 279 279 279 277 276 275 275 273 272 271 270 268 267 268
295 295 295 295 295 294 291 289 288 287 288 288 287 286 286 286 286 285 285 284 283 282 281 281 281 281 281 281 281 281 280 279 278 277 275 275 274 273 271 271 270 269 269
Height
5804 5803 5802 5801 5800 5798 5797 5795 5793 5791 5790 5788 5787 5785 5784 5782 5781 5780 5779 5778 5777 5776 5775 5774 5773 5773 5772 5772 5773 5773 5773 5773 5773 5774 5774 5775 5776 5777 5778 5779 5779 5780 5780
5798 5797 5796 5795 5794 5792 5791 5789 5787 5785 5784 5782 5781 5779 5778 5776 5775 5774 5773 5772 5771 5770 5768 5768 5767 5767 5767 5767 5767 5767 5767 5767 5768 5768 5768 5769 5770 5771 5772 5773 5773 5774 5774
5792 5791 5790 5789 5787 5786 5785 5783 5781 5779 5777 5776 5774 5773 5771 5770 5769 5767 5766 5765 5764 5763 5762 5761 5761 5761 5761 5761 5761 5761 5761 5761 5761 5761 5762 5763 5764 5765 5766 5767 5767 5767 5768
5786 5785 5783 5782 5781 5779 5778 5776 5774 5772 5771 5769 5768 5766 5764 5763 5762 5760 5759 5758 5757 5756 5755 5755 5754 5754 5754 5754 5754 5754 5755 5755 5755 5755 5755 5756 5758 5758 5759 5759 5760 5760 5761
5779 5778 5777 5775 5774 5773 5771 5769 5767 5766 5764 5762 5760 5759 5757 5756 5755 5753 5752 5751 5750 5749 5748 5748 5747 5747 5747 5747 5747 5748 5748 5748 5748 5748 5749 5749 5751 5751 5752 5752 5752 5753 5753
5772 5771 5770 5768 5767 5766 5764 5762 5760 5758 5757 5755 5753 5752 5750 5749 5748 5746 5745 5744 5742 5741 5740 5740 5740 5740 5740 5740 5740 5740 5740 5740 5741 5741 5742 5742 5742 5743 5743 5744 5745 5745 5746
5766 5764 5763 5762 5760 5759 5757 5755 5753 5751 5749 5747 5746 5744 5743 5741 5740 5739 5738 5736 5735 5734 5733 5732 5732 5733 5733 5733 5733 5733 5733 5733 5733 5734 5734 5734 5734 5735 5735 5736 5736 5737 5738
5759 5758 5756 5754 5753 5751 5749 5748 5745 5743 5741 5739 5738 5736 5735 5733 5732 5731 5730 5729 5728 5727 5726 5725 5725 5725 5725 5725 5725 5725 5725 5725 5725 5725 5726 5726 5726 5726 5727 5727 5728 5728 5729
5752 5751 5749 5747 5745 5744 5742 5739 5737 5735 5733 5731 5729 5728 5726 5725 5724 5723 5721 5720 5719 5719 5718 5718 5718 5717 5717 5717 5716 5716 5717 5717 5716 5717 5717 5717 5717 5717 5718 5718 5719 5720 5720
5745 5743 5741 5739 5737 5735 5733 5731 5729 5727 5724 5722 5721 5719 5718 5717 5715 5714 5713 5712 5711 5710 5710 5709 5709 5709 5709 5708 5708 5708 5708 5708 5708 5708 5707 5708 5708 5708 5708 5709 5710 5710 5711
5736 5734 5733 5731 5729 5726 5724 5722 5720 5718 5716 5714 5712 5711 5709 5708 5706 5705 5703 5702 5702 5701 5701 5700 5700 5700 5700 5699 5699 5699 5699 5698 5698 5698 5698 5698 5699 5699 5699 5700 5700 5701 5701
5728 5726 5724 5722 5719 5717 5715 5713 5711 5709 5707 5705 5703 5701 5700 5698 5697 5695 5694 5693 5692 5692 5691 5691 5690 5691 5691 5690 5690 5689 5689 5689 5688 5688 5688 5689 5689 5689 5690 5690 5690 5691 5691
5719 5717 5715 5712 5710 5708 5706 5704 5702 5700 5698 5696 5694 5692 5690 5689 5687 5686 5684 5683 5682 5681 5681 5681 5681 5681 5681 5680 5680 5679 5679 5678 5678 5678 5678 5679 5679 5679 5679 5680 5680 5680 5681
5710 5707 5705 5703 5701 5699 5697 5695 5693 5691 5689 5687 5685 5683 5681 5679 5677 5676 5674 5673 5672 5671 5670 5670 5670 5670 5670 5669 5669 5668 5668 5668 5667 5668 5668 5668 5669 5669 5669 5670 5670 5670 5671
5701 5698 5696 5694 5692 5690 5688 5686 5684 5682 5680 5677 5675 5673 5671 5669 5668 5666 5664 5663 5663 5662 5660 5660 5659 5659 5659 5658 5657 5657 5657 5656 5657 5657 5657 5658 5658 5659 5659 5659 5660 5660 5660
5692 5689 5687 5685 5683 5681 5679 5677 5675 5673 5670 5667 5665 5663 5661 5659 5657 5656 5655 5654 5653 5652 5650 5649 5649 5648 5648 5647 5646 5646 5645 5645 5645 5646 5646 5646 5647 5647 5648 5648 5649 5649 5650
5683 5681 5678 5676 5674 5672 5670 5668 5665 5663 5660 5658 5655 5653 5651 5649 5647 5646 5645 5644 5643 5642 5640 5639 5638 5637 5637 5636 5635 5635 5634 5634 5634 5634 5634 5635 5635 5636 5636 5637 5637 5638 5638
5674 5672 5669 5667 5665 5662 5660 5658 5656 5653 5651 5648 5646 5644 5641 5639 5637 5636 5635 5634 5633 5632 5630 5629 5628 5627 5626 5625 5624 5623 5623 5622 5622 5622 5623 5623 5623 5624 5624 5625 5626 5626 5627
5666 5663 5660 5658 5655 5653 5650 5648 5646 5644 5641 5639 5636 5634 5632 5630 5627 5626 5625 5624 5623 5622 5620 5619 5618 5616 5615 5615 5614 5612 5612 5611 5611 5611 5611 5612 5612 5612 5613 5613 5614 5614 5615
5657 5654 5652 5649 5646 5644 5641 5639 5636 5634 5631 5629 5627 5625 5622 5620 5619 5617 5615 5614 5613 5612 5610 5609 5608 5606 5605 5604 5604 5602 5602 5601 5601 5600 5600 5600 5601 5601 5601 5601 5602 5602 5603
5647 5645 5642 5640 5637 5634 5632 5629 5626 5624 5622 5619 5617 5615 5613 5611 5609 5608 5606 5604 5603 5602 5601 5599 5598 5597 5596 5595 5594 5593 5592 5591 5590 5590 5589 5589 5589 5589 5590 5590 5590 5590 5591
5638 5636 5633 5630 5628 5625 5622 5620 5617 5614 5612 5610 5607 5605 5603 5602 5600 5598 5596 5595 5594 5592 5591 5589 5588 5587 5586 5585 5584 5583 5582 5580 5579 5579 5578 5578 5578 5578 5578 5578 5578 5578 5578
5628 5626 5623 5621 5618 5615 5612 5610 5607 5605 5603 5600 5598 5596 5594 5592 5590 5588 5587 5585 5583 5582 5581 5580 5579 5577 5576 5575 5574 5573 5572 5571 5569 5568 5568 5567 5567 5566 5566 5566 5566 5566 5566
5619 5616 5613 5611 5608 5605 5603 5600 5598 5595 5593 5591 5589 5587 5585 5583 5581 5579 5577 5575 5574 5572 5571 5570 5569 5567 5566 5565 5564 5562 5561 5560 5559 5557 5557 5556 5555 5555 5554 5554 5554 5554 5554
5608 5606 5603 5600 5598 5595 5593 5590 5588 5586 5584 5582 5580 5578 5576 5574 5572 5570 5568 5566 5564 5563 5561 5560 5559 5558 5556 5555 5553 5552 5551 5549 5548 5546 5545 5545 5544 5543 5542 5542 5542 5542 5542
5598 5595 5593 5590 5588 5585 5583 5581 5579 5577 5575 5573 5571 5569 5567 5565 5563 5561 5559 5557 5555 5554 5552 5551 5549 5548 5546 5545 5543 5542 5540 5539 5537 5536 5535 5534 5533 5532 5531 5531 5531 5530 5530